FW4606 Weather Reports


time (UTC)temp
C
wind
direction
speed
KPH
gust
KPH
rain 1hr
cm
rain 24hr
cm
rain mn
cm
humidity
%
barometer
mb
20260901143521 22 240 0.0 4.8 0.00 0.00 0.00 81 1015.0
20260901143516 22 140 0.0 4.8 0.00 0.00 0.00 83 1014.9
20260901142509 21 108 0.0 4.8 0.00 0.00 0.00 86 1014.9
20260901142001 21 149 0.0 3.2 0.00 0.00 0.00 88 1014.9
20260901141456 21 158 0.0 1.6 0.00 0.00 0.00 89 1014.9
20260901141218 20 97 0.0 3.2 0.00 0.00 0.00 90 1014.9
20260901141053 20 174 0.0 3.2 0.00 0.00 0.00 90 1014.9
20260901135938 20 107 0.0 3.2 0.00 0.00 0.00 92 1014.9
20260901135704 20 146 0.0 3.2 0.00 0.00 0.00 93 1015.0
20260901134926 19 169 0.0 3.2 0.00 0.00 0.00 94 1015.0
20260901134420 19 191 0.0 3.2 0.00 0.00 0.00 96 1015.1
20260901133914 18 132 0.0 3.2 0.00 0.00 0.00 97 1015.1
20260901133408 18 122 0.0 3.2 0.00 0.00 0.00 98 1015.0
20260901132902 18 134 0.0 3.2 0.00 0.00 0.00 98 1014.9
20260901132626 18 150 0.0 1.6 0.00 0.00 0.00 98 1014.9
20260901131849 17 121 0.0 0.0 0.00 0.00 0.00 98 1014.8
20260901131344 17 121 0.0 1.6 0.00 0.00 0.00 98 1014.7
20260901130838 17 122 0.0 1.6 0.00 0.00 0.00 98 1014.7
20260901130332 17 121 0.0 0.0 0.00 0.00 0.00 98 1014.7
20260901125826 17 121 0.0 0.0 0.00 0.00 0.00 97 1014.7
20260901125320 16 122 0.0 0.0 0.00 0.00 0.00 97 1014.6
20260901125048 16 121 0.0 0.0 0.00 0.00 0.00 97 1014.6
20260901124813 16 121 0.0 0.0 0.00 0.00 0.00 97 1014.6
20260901123802 16 121 0.0 0.0 0.00 0.00 0.00 97 1014.5
20260901123256 16 121 0.0 0.0 0.00 0.00 0.00 97 1014.5
20260901122750 15 121 0.0 0.0 0.00 0.00 0.00 97 1014.5
20260901122244 15 121 0.0 0.0 0.00 0.00 0.00 97 1014.5
20260901121738 15 122 0.0 0.0 0.00 0.00 0.00 97 1014.5
20260901121502 15 122 0.0 0.0 0.00 0.00 0.00 97 1014.5
20260901120726 16 121 0.0 0.0 0.00 0.00 0.00 97 1014.5
20260901120451 16 121 0.0 0.0 0.00 0.00 0.00 97 1014.4
20260901115714 16 121 0.0 0.0 0.00 0.00 0.00 97 1014.4
20260901115207 15 122 0.0 0.0 0.00 0.00 0.00 97 1014.2
20260901114701 15 121 0.0 0.0 0.00 0.00 0.00 97 1014.2
20260901114156 15 122 0.0 0.0 0.00 0.00 0.00 97 1014.1
20260901113650 15 122 0.0 0.0 0.00 0.00 0.00 97 1014.1
20260901113144 15 122 0.0 0.0 0.00 0.00 0.00 97 1014.1
20260901112910 15 121 0.0 0.0 0.00 0.00 0.00 97 1014.0
20260901112404 15 122 0.0 0.0 0.00 0.00 0.00 97 1014.0
20260901111626 14 121 0.0 0.0 0.00 0.00 0.00 97 1014.0
20260901111120 14 121 0.0 0.0 0.00 0.00 0.00 96 1014.0
20260901110846 14 121 0.0 0.0 0.00 0.00 0.00 96 1013.9
20260901110339 14 122 0.0 0.0 0.00 0.00 0.00 96 1013.9
20260901105602 14 121 0.0 0.0 0.00 0.00 0.00 96 1013.9
20260901105327 14 121 0.0 0.0 0.00 0.00 0.00 95 1014.0
20260901104822 14 121 0.0 0.0 0.00 0.00 0.00 96 1014.0
20260901104044 15 122 0.0 0.0 0.00 0.00 0.00 96 1013.9
20260901103538 15 122 0.0 0.0 0.00 0.00 0.00 96 1013.8
20260901103032 15 122 0.0 0.0 0.00 0.00 0.00 96 1013.8
20260901102525 15 122 0.0 0.0 0.00 0.00 0.00 96 1013.8
20260901102020 15 121 0.0 0.0 0.00 0.00 0.00 96 1013.8
20260901101514 15 121 0.0 0.0 0.00 0.00 0.00 97 1013.7
20260901101008 14 122 0.0 1.6 0.00 0.00 0.00 95 1013.6
20260901100502 15 121 0.0 1.6 0.00 0.00 0.00 95 1013.5
20260901095956 15 121 0.0 0.0 0.00 0.00 0.00 95 1013.5
20260901095451 15 122 0.0 0.0 0.00 0.00 0.00 95 1013.5
20260901095215 15 122 0.0 0.0 0.00 0.00 0.00 95 1013.4
20260901094437 16 122 0.0 0.0 0.00 0.00 0.00 97 1013.2
20260901093931 16 122 0.0 0.0 0.00 0.00 0.00 97 1013.1
20260901093426 16 121 0.0 0.0 0.00 0.00 0.00 96 1013.1
20260901092920 15 121 0.0 0.0 0.00 0.00 0.00 96 1013.0
20260901092414 15 122 0.0 0.0 0.00 0.00 0.00 95 1013.1
20260901091907 16 121 0.0 0.0 0.00 0.00 0.00 96 1013.1
20260901090856 16 121 0.0 0.0 0.00 0.00 0.00 96 1013.1
20260901090350 17 121 0.0 0.0 0.00 0.00 0.00 97 1013.2
20260901085844 16 122 0.0 0.0 0.00 0.00 0.00 97 1013.1
20260901085338 16 121 0.0 0.0 0.00 0.00 0.00 97 1013.1
20260901084832 16 121 0.0 0.0 0.00 0.00 0.00 97 1013.2
20260901084326 16 121 0.0 0.0 0.00 0.00 0.00 97 1013.2
20260901083820 16 121 0.0 0.0 0.00 0.00 0.00 96 1013.2
20260901083314 15 121 0.0 0.0 0.00 0.00 0.00 95 1013.1
20260901083039 15 122 0.0 0.0 0.00 0.00 0.00 95 1013.1
20260901082534 16 121 0.0 0.0 0.00 0.00 0.00 95 1013.1
20260901082028 16 122 0.0 0.0 0.00 0.00 0.00 96 1013.1
20260901081520 16 121 0.0 0.0 0.00 0.00 0.00 96 1013.1
20260901080744 16 122 0.0 0.0 0.00 0.00 0.00 96 1013.1
20260901080238 16 121 0.0 0.0 0.00 0.00 0.00 96 1013.1
20260901075732 16 122 0.0 0.0 0.00 0.00 0.00 96 1013.1
20260901075456 16 122 0.0 0.0 0.00 0.00 0.00 95 1013.2
20260901074719 16 122 0.0 0.0 0.00 0.00 0.00 95 1013.2
20260901074214 16 121 0.0 0.0 0.00 0.00 0.00 96 1013.4
20260901073940 17 121 0.0 0.0 0.00 0.00 0.00 96 1013.4
20260901073433 17 121 0.0 0.0 0.00 0.00 0.00 96 1013.4
20260901072656 16 121 0.0 0.0 0.00 0.00 0.00 96 1013.4
20260901072150 16 121 0.0 0.0 0.00 0.00 0.00 95 1013.5
20260901071916 16 122 0.0 0.0 0.00 0.00 0.00 95 1013.6
20260901071138 16 121 0.0 0.0 0.00 0.00 0.00 95 1013.7
20260901070632 17 122 0.0 0.0 0.00 0.00 0.00 96 1013.8
20260901070126 17 122 0.0 0.0 0.00 0.00 0.00 96 1013.7
20260901065620 16 121 0.0 0.0 0.00 0.00 0.00 95 1013.8
20260901065114 16 122 0.0 0.0 0.00 0.00 0.00 94 1013.8
20260901064838 16 121 0.0 0.0 0.00 0.00 0.00 94 1013.8
20260901064102 16 122 0.0 0.0 0.00 0.00 0.00 94 1013.9
20260901063556 17 122 0.0 0.0 0.00 0.00 0.00 95 1014.0
20260901063050 17 122 0.0 0.0 0.00 0.00 0.00 95 1014.0
20260901062544 17 122 0.0 0.0 0.00 0.00 0.00 96 1013.9
20260901062038 17 122 0.0 0.0 0.00 0.00 0.00 95 1013.7
20260901061532 17 121 0.0 0.0 0.00 0.00 0.00 95 1013.7
20260901061026 17 121 0.0 0.0 0.00 0.00 0.00 95 1013.7
20260901060520 17 122 0.0 0.0 0.00 0.00 0.00 95 1013.8
20260901060014 17 122 0.0 0.0 0.00 0.00 0.00 95 1013.7
20260901055508 17 122 0.0 0.0 0.00 0.00 0.00 94 1013.7
20260901055001 17 122 0.0 0.0 0.00 0.00 0.00 94 1013.7
20260901054456 17 121 0.0 0.0 0.00 0.00 0.00 94 1013.7
20260901053950 17 121 0.0 0.0 0.00 0.00 0.00 94 1013.6
20260901053450 17 122 0.0 0.0 0.00 0.00 0.00 94 1013.6
20260901053217 17 122 0.0 0.0 0.00 0.00 0.00 94 1013.6
20260901052446 17 121 0.0 0.0 0.00 0.00 0.00 93 1013.6
20260901051949 17 121 0.0 0.0 0.00 0.00 0.00 93 1013.6
20260901051446 17 121 0.0 0.0 0.00 0.00 0.00 93 1013.5
20260901050944 17 122 0.0 0.0 0.00 0.00 0.00 93 1013.4
20260901050441 18 121 0.0 0.0 0.00 0.00 0.00 93 1013.5
20260901045940 18 121 0.0 0.0 0.00 0.00 0.00 93 1013.4
20260901045440 18 121 0.0 0.0 0.00 0.00 0.00 93 1013.4
20260901044939 18 122 0.0 0.0 0.00 0.00 0.00 92 1013.4
20260901044439 18 122 0.0 0.0 0.00 0.00 0.00 92 1013.1
20260901043940 18 121 0.0 0.0 0.00 0.00 0.00 92 1013.1
20260901043441 18 121 0.0 0.0 0.00 0.00 0.00 91 1013.1
20260901043209 18 121 0.0 0.0 0.00 0.00 0.00 91 1013.0
20260901042435 18 121 0.0 0.0 0.00 0.00 0.00 91 1013.0
20260901041935 19 121 0.0 0.0 0.00 0.00 0.00 90 1013.0
20260901041707 19 121 0.0 0.0 0.00 0.00 0.00 90 1012.8
20260901040936 19 121 0.0 0.0 0.00 0.00 0.00 90 1012.9
20260901040436 19 122 0.0 0.0 0.00 0.00 0.00 90 1013.0
20260901035936 19 121 0.0 0.0 0.00 0.00 0.00 90 1013.0
20260901035706 19 121 0.0 0.0 0.00 0.00 0.00 90 1012.9
20260901034937 20 121 0.0 0.0 0.00 0.00 0.00 89 1013.0
20260901034433 20 122 0.0 0.0 0.00 0.00 0.00 89 1013.0
20260901033933 20 121 0.0 0.0 0.00 0.00 0.00 89 1013.1
20260901033438 20 121 0.0 0.0 0.00 0.00 0.00 88 1013.0
20260901033432 20 121 0.0 0.0 0.00 0.00 0.00 89 1013.1
20260901032433 20 122 0.0 0.0 0.00 0.00 0.00 88 1013.0
20260901031931 20 121 0.0 0.0 0.00 0.00 0.00 89 1012.9
20260901031433 20 121 0.0 0.0 0.00 0.00 0.00 89 1012.8
20260901030933 20 122 0.0 0.0 0.00 0.00 0.00 89 1012.9
20260901030708 20 121 0.0 0.0 0.00 0.00 0.00 89 1012.8
20260901025928 20 122 0.0 0.0 0.00 0.00 0.00 87 1012.8
20260901025429 20 122 0.0 0.0 0.00 0.00 0.00 87 1012.8
20260901024929 20 122 0.0 0.0 0.00 0.00 0.00 86 1012.8
20260901024427 20 121 0.0 0.0 0.00 0.00 0.00 85 1012.8
20260901023929 21 121 0.0 0.0 0.00 0.00 0.00 84 1012.7
20260901023426 21 122 0.0 0.0 0.00 0.00 0.00 84 1012.7
20260901022926 21 121 0.0 0.0 0.00 0.00 0.00 84 1012.6
20260901022429 21 121 0.0 0.0 0.00 0.00 0.00 84 1012.5
20260901021926 21 121 0.0 0.0 0.00 0.00 0.00 82 1012.6
20260901021425 22 121 0.0 0.0 0.00 0.00 0.00 81 1012.5
20260901020921 22 121 0.0 0.0 0.00 0.00 0.00 80 1012.5
20260901020424 22 121 0.0 0.0 0.00 0.00 0.00 79 1012.5
20260901015916 22 122 0.0 0.0 0.00 0.00 0.00 79 1012.5
20260901015418 22 122 0.0 0.0 0.00 0.00 0.00 79 1012.4
20260901014911 22 121 0.0 0.0 0.00 0.00 0.00 79 1012.4
20260901014410 23 122 0.0 0.0 0.00 0.00 0.00 79 1012.3
20260901013911 23 122 0.0 0.0 0.00 0.00 0.00 78 1012.2
20260901013646 23 121 0.0 0.0 0.00 0.00 0.00 77 1012.2
20260901013407 23 121 0.0 0.0 0.00 0.00 0.00 78 1012.2
20260901012407 23 121 0.0 0.0 0.00 0.00 0.00 76 1012.1
20260901011907 23 121 0.0 0.0 0.00 0.00 0.00 76 1012.1
20260901011403 24 121 0.0 0.0 0.00 0.00 0.00 75 1012.0
20260901011135 24 121 0.0 0.0 0.00 0.00 0.00 74 1012.0
20260901010404 25 122 0.0 0.0 0.00 0.00 0.00 73 1012.0
20260901005903 25 121 0.0 0.0 0.00 0.00 0.00 72 1012.0
20260901005405 25 122 0.0 0.0 0.00 0.00 0.00 71 1012.0
20260901004902 25 121 0.0 0.0 0.00 0.00 0.00 71 1012.0
20260901004359 26 121 0.0 0.0 0.00 0.00 0.00 70 1011.9
20260901004126 26 121 0.0 0.0 0.00 0.00 0.00 67 1011.9
20260901004000 26 121 0.0 0.0 0.00 0.00 0.00 68 1011.8
20260901003119 27 121 0.0 0.0 0.00 0.00 0.00 64 1011.9
20260901002347 27 121 0.0 0.0 0.00 0.00 0.00 62 1011.8
20260901001846 27 122 0.0 0.0 0.00 0.00 0.00 61 1011.8
20260901001347 28 121 0.0 0.0 0.00 0.00 0.00 59 1011.8
20260901000843 28 121 0.0 0.0 0.00 0.00 0.00 58 1011.8
20260901000345 28 121 0.0 0.0 0.00 0.00 0.00 57 1011.8
20260831235841 28 121 0.0 0.0 0.00 0.00 0.00 54 1011.8
20260831235341 28 121 0.0 0.0 0.00 0.00 0.00 53 1011.7
20260831234839 29 121 0.0 0.0 0.00 0.00 0.00 51 1011.8
20260831234339 29 121 0.0 0.0 0.00 0.00 0.00 52 1011.7
20260831233838 30 121 0.0 0.0 0.00 0.00 0.00 51 1011.7
20260831233336 30 121 0.0 0.0 0.00 0.00 0.00 50 1011.6
20260831232833 30 121 0.0 0.0 0.00 0.00 0.00 48 1011.7
20260831232333 30 121 0.0 0.0 0.00 0.00 0.00 49 1011.7
20260831231837 30 121 0.0 0.0 0.00 0.00 0.00 47 1011.7
20260831231333 31 121 0.0 0.0 0.00 0.00 0.00 46 1011.6
20260831230832 31 122 0.0 0.0 0.00 0.00 0.00 45 1011.7
20260831230332 31 121 0.0 0.0 0.00 0.00 0.00 44 1011.6
20260831225826 31 121 0.0 0.0 0.00 0.00 0.00 44 1011.6
20260831225319 32 121 0.0 0.0 0.00 0.00 0.00 43 1011.6
20260831224814 32 121 0.0 0.0 0.00 0.00 0.00 43 1011.7
20260831224308 33 156 0.0 1.6 0.00 0.00 0.00 43 1011.5
20260831223802 33 158 0.0 1.6 0.00 0.00 0.00 44 1011.6
20260831223255 33 138 0.0 0.0 0.00 0.00 0.00 44 1011.6
20260831222751 33 135 0.0 1.6 0.00 0.00 0.00 40 1011.6
20260831222745 33 134 0.0 1.6 0.00 0.00 0.00 41 1011.4
20260831222008 33 39 0.0 1.6 0.00 0.00 0.00 43 1011.5
20260831221505 33 75 0.0 1.6 0.00 0.00 0.00 40 1011.5
20260831220726 33 351 0.0 4.8 0.00 0.00 0.00 40 1011.4
20260831220219 33 108 1.6 9.7 0.00 0.00 0.00 41 1011.3
20260831215714 33 162 1.6 9.7 0.00 0.00 0.00 39 1011.4
20260831215208 33 113 0.0 4.8 0.00 0.00 0.00 42 1011.3
20260831214702 32 134 0.0 4.8 0.00 0.00 0.00 47 1011.3
20260831214156 32 143 0.0 1.6 0.00 0.00 0.00 43 1011.3
20260831213650 33 146 0.0 1.6 0.00 0.00 0.00 43 1011.3
20260831213144 33 146 0.0 1.6 0.00 0.00 0.00 40 1011.2
20260831212638 33 181 0.0 1.6 0.00 0.00 0.00 38 1011.2
20260831212132 33 118 0.0 3.2 0.00 0.00 0.00 40 1011.2
20260831211632 33 94 0.0 3.2 0.00 0.00 0.00 43 1011.2
20260831211129 32 148 0.0 1.6 0.00 0.00 0.00 44 1011.2
20260831210628 33 113 0.0 1.6 0.00 0.00 0.00 43 1011.1
20260831210126 33 7 1.6 4.8 0.00 0.00 0.00 48 1011.1
20260831205625 32 117 1.6 6.4 0.00 0.00 0.00 46 1011.1
20260831205123 32 148 1.6 6.4 0.00 0.00 0.00 42 1011.2
20260831204854 32 92 1.6 6.4 0.00 0.00 0.00 43 1011.3
20260831204124 32 160 0.0 4.8 0.00 0.00 0.00 45 1011.2
20260831203851 33 115 0.0 4.8 0.00 0.00 0.00 44 1011.2
20260831203123 33 345 0.0 1.6 0.00 0.00 0.00 44 1011.2
20260831202620 32 359 0.0 1.6 0.00 0.00 0.00 43 1011.2
20260831202121 33 18 0.0 1.6 0.00 0.00 0.00 43 1011.2
20260831201625 32 94 0.0 4.8 0.00 0.00 0.00 41 1011.1
20260831201619 32 122 0.0 1.6 0.00 0.00 0.00 45 1011.2
20260831200619 32 12 0.0 4.8 0.00 0.00 0.00 44 1011.1
20260831200119 33 109 0.0 3.2 0.00 0.00 0.00 47 1011.1
20260831195852 32 109 0.0 3.2 0.00 0.00 0.00 44 1011.0
20260831195114 33 103 1.6 8.0 0.00 0.00 0.00 48 1010.9
20260831194609 32 141 1.6 8.0 0.00 0.00 0.00 45 1010.9
20260831194103 32 94 0.0 4.8 0.00 0.00 0.00 46 1010.9
20260831193557 32 5 0.0 4.8 0.00 0.00 0.00 46 1010.9
20260831193051 32 3 0.0 6.4 0.00 0.00 0.00 49 1010.9
20260831192544 32 132 0.0 6.4 0.00 0.00 0.00 47 1011.0
20260831192311 32 156 0.0 8.0 0.00 0.00 0.00 48 1011.0
20260831191533 32 92 0.0 8.0 0.00 0.00 0.00 52 1011.1
20260831191027 32 319 0.0 4.8 0.00 0.00 0.00 52 1011.2
20260831190521 32 128 0.0 4.8 0.00 0.00 0.00 52 1011.2
20260831190247 32 342 0.0 4.8 0.00 0.00 0.00 54 1011.1
20260831185740 31 345 0.0 4.8 0.00 0.00 0.00 54 1011.0
20260831185003 31 113 1.6 4.8 0.00 0.00 0.00 55 1011.0
20260831184503 31 77 1.6 4.8 0.00 0.00 0.00 57 1011.0
20260831184236 31 356 1.6 4.8 0.00 0.00 0.00 57 1011.0
20260831183503 31 99 0.0 4.8 0.00 0.00 0.00 58 1010.9
20260831183005 31 132 0.0 3.2 0.00 0.00 0.00 60 1011.0
20260831182504 31 345 0.0 4.8 0.00 0.00 0.00 60 1011.0
20260831182003 30 110 0.0 4.8 0.00 0.00 0.00 62 1011.0
20260831181504 30 44 1.6 8.0 0.00 0.00 0.00 62 1011.0
20260831181003 30 4 1.6 8.0 0.00 0.00 0.00 66 1011.1
20260831180735 30 69 1.6 6.4 0.00 0.00 0.00 64 1011.2
20260831180009 30 113 1.6 4.8 0.00 0.00 0.00 67 1011.3
20260831180003 30 194 1.6 6.4 0.00 0.00 0.00 64 1011.2
20260831175003 29 83 1.6 4.8 0.00 0.00 0.00 67 1011.2
20260831174504 29 117 1.6 4.8 0.00 0.00 0.00 70 1011.3
20260831174003 28 91 1.6 6.4 0.00 0.00 0.00 68 1011.2
20260831173735 28 107 1.6 6.4 0.00 0.00 0.00 72 1011.3
20260831173235 29 124 1.6 4.8 0.00 0.00 0.00 72 1011.3
20260831172458 28 238 1.6 6.4 0.00 0.00 0.00 77 1011.3
20260831171952 28 195 1.6 6.4 0.00 0.00 0.00 76 1011.4
20260831171446 28 230 1.6 4.8 0.00 0.00 0.00 76 1011.4
20260831170940 28 100 0.0 3.2 0.00 0.00 0.00 77 1011.4
20260831170434 28 112 0.0 3.2 0.00 0.00 0.00 80 1011.4
20260831165928 27 122 0.0 3.2 0.00 0.00 0.00 79 1011.4
20260831165422 27 33 0.0 3.2 0.00 0.00 0.00 80 1011.4
20260831164916 27 132 0.0 3.2 0.00 0.00 0.00 82 1011.4
20260831164410 26 141 0.0 3.2 0.00 0.00 0.00 84 1011.5
20260831163903 26 77 0.0 1.6 0.00 0.00 0.00 84 1011.4
20260831163358 26 105 0.0 1.6 0.00 0.00 0.00 84 1011.4
20260831162852 26 351 0.0 1.6 0.00 0.00 0.00 84 1011.4
20260831162347 26 307 0.0 1.6 0.00 0.00 0.00 84 1011.4
20260831161840 26 81 0.0 1.6 0.00 0.00 0.00 84 1011.3
20260831161334 26 138 0.0 3.2 0.00 0.00 0.00 85 1011.4
20260831160827 26 44 0.0 3.2 0.00 0.00 0.00 85 1011.3
20260831160322 26 0 0.0 3.2 0.00 0.00 0.00 85 1011.4
20260831155816 26 198 0.0 1.6 0.00 0.00 0.00 84 1011.3
20260831155310 26 198 0.0 1.6 0.00 0.00 0.00 85 1011.2
20260831154803 26 67 0.0 3.2 0.00 0.00 0.00 85 1011.1
20260831154259 26 129 0.0 3.2 0.00 0.00 0.00 88 1011.1
20260831154254 26 343 0.0 4.8 0.00 0.00 0.00 87 1010.8
20260831153245 26 97 0.0 4.8 0.00 0.00 0.00 87 1010.7
20260831152740 26 119 1.6 4.8 0.00 0.00 0.00 87 1010.7
20260831152234 26 102 0.0 4.8 0.00 0.00 0.00 88 1010.6
20260831151728 26 103 0.0 3.2 0.00 0.00 0.00 88 1010.6
20260831151221 26 89 0.0 4.8 0.00 0.00 0.00 88 1010.5
20260831150716 26 27 0.0 4.8 0.00 0.00 0.00 88 1010.5
20260831150209 26 109 0.0 1.6 0.00 0.00 0.00 88 1010.5
20260831145704 26 127 0.0 3.2 0.00 0.00 0.00 88 1010.4
20260831145158 25 162 0.0 3.2 0.00 0.00 0.00 88 1010.2
20260831144651 25 149 1.6 4.8 0.00 0.00 0.00 90 1010.2
20260831144146 25 143 1.6 4.8 0.00 0.00 0.00 89 1010.0